Wind_Speed
9 11 10 9 9 3 3 7 11 3 12 3 6 4 5 5 4 4 1 6 11 15 15 16 20 22 24 26 29 32 33 33 36 41 45 47 47 49 49 49 34 34 34 37
10 9 10 9 4 5 5 5 6 5 4 8 7 7 5 3 6 4 4 7 12 13 16 18 21 22 24 27 29 31 31 34 37 42 44 46 46 49 48 47 34 35 35 38
11 8 8 6 1 4 5 6 3 4 2 10 6 5 3 5 6 5 6 9 11 15 16 18 21 24 24 27 31 32 35 36 36 40 44 47 47 48 48 46 34 36 37 40
11 7 3 4 3 3 5 3 2 4 7 9 8 5 7 8 8 8 8 10 13 15 16 19 23 22 25 30 33 33 35 35 37 37 41 47 51 51 49 47 35 36 38 44
7 7 7 9 10 8 6 5 6 13 11 10 10 9 10 10 10 10 10 13 15 14 18 21 21 24 28 31 33 33 35 36 36 36 39 44 49 55 52 51 39 37 39 46
8 7 10 11 10 9 6 7 18 10 11 11 9 11 12 13 11 11 13 13 15 15 20 21 22 25 27 30 33 34 36 37 37 36 38 42 47 51 56 53 47 41 40 45
12 11 9 11 11 10 7 6 14 11 10 10 12 14 13 13 13 13 13 15 15 17 21 22 22 23 26 29 33 35 36 37 38 37 39 41 43 48 53 57 56 45 45 44
13 15 14 12 10 7 9 10 11 9 11 12 15 14 15 12 15 14 15 16 15 19 21 21 21 23 27 29 31 34 36 38 41 39 40 42 42 46 50 56 59 56 48 47
17 22 18 14 10 9 14 11 8 11 13 15 16 16 15 15 16 15 16 16 15 19 20 19 18 20 25 28 29 32 36 39 42 41 41 42 43 45 48 51 57 60 56 51
26 23 21 17 9 12 16 11 13 13 14 15 17 17 15 17 16 15 16 15 15 18 18 16 19 22 25 27 27 31 37 39 42 44 43 43 46 48 50 50 51 57 61 60
25 20 19 14 12 18 14 14 15 15 16 17 18 18 16 16 15 14 16 13 15 17 16 16 19 20 24 24 26 29 33 37 41 44 46 47 46 47 50 52 53 53 55 58
19 19 18 14 15 18 15 16 16 17 17 16 18 18 15 15 15 16 15 12 15 16 15 16 18 19 21 23 26 27 29 32 37 42 46 47 49 47 47 49 52 54 54 54
22 21 20 18 18 19 18 17 17 17 18 18 16 18 17 16 15 16 13 11 15 14 13 14 14 16 18 21 23 25 26 28 32 37 41 45 48 50 50 48 47 47 48 49
23 24 22 21 25 20 20 18 18 17 15 16 17 15 17 15 14 14 12 11 14 14 12 11 11 14 16 17 21 22 25 26 29 32 34 38 43 46 48 51 50 49 47 46
28 22 22 27 25 22 20 18 18 19 19 16 14 16 18 16 13 13 11 11 14 13 12 10 9 11 12 13 16 18 22 25 26 29 30 31 35 38 42 45 47 49 49 50
19 22 17 30 27 23 20 18 19 18 17 18 17 17 18 14 13 14 11 11 13 13 12 10 7 8 8 8 10 13 15 19 22 25 28 27 28 31 35 38 40 43 45 46
16 15 18 18 18 21 20 19 19 17 15 16 19 20 20 18 16 15 12 12 14 13 12 9 7 5 5 4 5 7 10 13 16 19 23 26 25 24 26 30 33 35 38 40
15 13 13 14 13 14 19 18 19 16 15 15 19 22 22 22 19 17 14 14 15 13 11 9 7 4 4 3 4 4 4 7 10 13 17 19 23 23 22 21 23 26 29 31
22 19 18 16 15 13 16 18 18 18 15 15 18 23 24 20 17 16 14 14 15 15 12 10 8 5 3 2 4 5 6 7 8 11 14 17 18 19 20 19 17 17 19 21
25 23 21 21 20 18 15 20 19 17 16 14 16 23 25 21 19 19 18 18 16 12 13 10 8 5 4 2 2 4 5 7 9 10 13 14 15 16 16 16 17 15 13 13
26 24 25 24 24 20 20 19 20 19 17 15 16 22 25 22 21 19 17 17 18 16 13 11 10 8 6 5 3 3 3 4 6 8 10 11 12 13 13 14 15 16 15 11
24 25 25 25 24 24 20 18 21 21 20 18 17 18 24 23 21 18 16 17 18 17 16 15 12 10 8 7 6 5 5 4 4 6 7 9 11 12 12 13 13 14 15 15
26 25 23 25 25 26 27 22 24 24 23 21 18 18 22 25 23 21 19 18 20 21 20 18 14 13 12 11 9 10 10 9 9 10 10 10 10 12 14 15 15 16 16 17
26 25 25 24 25 26 27 27 24 26 25 23 21 20 22 24 23 21 19 17 18 19 19 18 16 17 16 15 14 13 13 13 14 15 16 16 16 16 16 17 18 18 20 21
28 28 26 26 25 26 28 29 26 26 28 27 26 24 24 23 23 23 22 21 21 22 22 21 20 20 18 18 17 18 18 17 18 19 20 19 19 19 19 19 19 19 21 24
30 29 28 27 26 26 29 31 32 29 30 30 28 26 26 25 23 22 21 21 21 22 23 23 22 22 22 22 21 20 18 18 19 21 21 21 20 20 20 20 20 20 23 25
26 28 28 25 24 25 28 30 32 32 31 31 30 29 28 26 24 22 20 20 20 20 22 23 23 23 24 24 23 23 22 22 22 22 22 23 24 24 24 23 22 24 25 29
Wind_Direction
266 265 250 238 210 320 124 154 177 206 227 203 110 132 178 174 116 69 13 16 10 8 9 18 17 19 17 14 14 15 16 15 18 19 20 17 15 14 10 10 28 38 41 40
248 259 246 262 249 158 185 207 185 209 245 134 157 167 190 110 99 118 57 30 18 23 32 24 29 25 22 20 20 19 20 21 23 23 22 22 21 19 15 17 33 44 47 52
226 246 259 282 342 106 145 150 181 264 263 157 171 181 122 95 122 107 66 35 40 47 34 38 36 29 26 24 25 24 25 24 25 26 28 28 26 24 22 24 39 49 54 58
203 237 266 200 155 153 215 202 171 186 154 151 154 149 114 120 122 96 66 58 61 50 45 49 42 35 30 29 30 28 28 26 27 29 33 36 35 32 29 33 45 54 60 62
213 212 191 166 155 186 177 139 147 151 160 161 152 132 121 130 109 92 78 74 66 55 60 57 49 41 36 34 31 31 29 30 32 31 36 37 38 38 35 39 50 60 64 64
207 185 179 159 155 191 196 125 143 147 164 165 135 123 139 124 111 93 91 80 66 66 69 65 55 49 43 37 34 36 33 32 36 34 37 40 41 41 40 43 54 64 69 69
199 177 167 160 176 194 170 154 155 154 145 137 128 129 127 121 109 103 90 82 74 78 77 71 62 56 47 42 39 40 38 35 40 39 39 42 43 44 45 46 52 65 68 74
158 161 167 175 185 179 164 157 150 137 130 134 140 133 129 124 112 110 91 83 85 86 83 77 72 60 53 47 45 44 42 40 45 47 44 45 47 48 49 51 53 57 69 71
188 176 167 172 176 164 164 163 154 148 141 144 140 136 135 124 121 108 92 89 94 94 90 86 77 60 55 52 49 48 46 44 49 53 51 51 52 52 54 55 57 59 62 69
181 179 180 180 177 173 173 165 154 149 144 151 141 141 139 127 123 106 96 96 104 101 98 88 75 68 63 58 52 52 51 48 48 53 58 56 54 57 59 60 61 63 64 67
185 177 181 173 167 172 175 162 150 144 148 151 147 145 139 136 120 110 103 107 112 110 105 92 85 73 65 61 56 56 56 52 51 52 56 60 59 58 60 63 64 64 64 67
183 187 191 185 173 181 176 163 152 151 155 155 149 149 143 134 123 113 111 119 123 119 111 102 91 76 67 62 60 58 59 56 54 54 56 57 60 62 62 62 63 64 65 67
180 192 198 189 183 182 173 161 155 160 161 153 155 154 148 140 134 121 119 132 132 130 121 109 95 78 70 67 65 61 60 59 57 56 57 57 57 60 62 63 64 65 64 63
184 193 182 193 175 176 166 160 161 163 167 165 158 165 154 145 140 129 132 147 143 142 135 121 105 88 79 70 71 69 61 58 57 58 57 58 57 58 60 61 62 63 64 65
167 162 181 181 174 173 167 166 169 172 169 163 168 176 168 157 151 142 151 160 156 151 146 140 121 96 90 77 71 73 68 63 59 57 57 56 57 58 58 59 61 62 62 62
177 165 153 179 175 177 172 170 172 178 178 173 178 184 178 165 166 157 169 168 168 165 158 154 140 112 100 84 72 63 59 56 55 54 56 56 53 54 55 56 58 59 60 59
189 182 176 153 175 182 177 178 178 177 176 180 186 188 182 174 177 170 178 182 179 178 170 167 158 126 119 101 73 57 46 41 41 44 44 48 53 52 51 53 56 56 57 58
198 193 182 175 179 175 186 189 188 188 184 186 190 190 189 182 183 181 185 189 190 189 181 184 177 147 124 86 56 38 26 24 26 27 32 36 39 45 49 50 50 52 54 57
202 199 188 190 204 207 200 193 196 194 199 197 193 192 194 184 184 186 192 195 195 193 192 195 196 186 163 97 42 29 21 15 12 16 18 20 25 32 35 40 44 47 50 49
201 196 187 188 202 215 217 213 202 202 204 202 196 194 192 182 184 190 198 197 193 191 200 205 209 212 200 195 345 2 8 4 9 19 22 24 25 25 24 27 32 31 34 40
199 197 195 197 200 212 220 220 202 210 207 206 200 198 195 188 192 202 207 198 190 200 203 211 218 215 214 219 242 308 327 353 7 11 17 17 19 18 20 20 20 21 20 16
203 205 204 204 206 209 219 225 208 214 213 208 201 201 199 198 201 209 215 209 199 200 200 210 219 221 221 231 238 227 237 273 307 329 347 357 356 354 357 5 6 2 0 1
208 214 213 209 208 214 222 227 217 213 214 213 203 199 200 204 207 208 215 211 205 204 206 213 216 221 225 230 230 233 243 264 285 301 316 329 334 334 336 340 344 354 355 350
208 213 215 214 210 213 222 229 227 220 216 214 210 200 204 207 210 215 223 217 217 216 218 222 219 225 230 236 243 247 252 264 276 288 301 311 316 319 320 320 322 324 329 333
209 213 215 216 218 218 220 222 228 225 222 216 212 206 207 212 216 222 226 221 218 221 221 224 227 231 238 243 249 254 263 271 277 282 292 300 305 308 310 312 313 312 317 324
212 217 217 217 220 219 219 219 219 226 226 223 219 216 214 216 220 224 226 221 220 220 224 228 230 232 236 245 254 260 267 274 278 282 290 295 298 300 303 305 306 307 310 312
212 219 227 226 223 220 221 221 221 221 225 227 226 225 221 220 223 228 230 229 227 228 232 234 236 238 240 245 251 258 264 268 272 277 282 286 290 293 297 300 302 302 306 311
Height
5680 5680 5681 5682 5683 5684 5683 5684 5687 5690 5689 5690 5693 5694 5695 5696 5697 5699 5699 5699 5697 5695 5693 5689 5685 5680 5675 5669 5663 5656 5648 5640 5630 5621 5609 5597 5585 5571 5557 5543 5531 5524 5517 5508
5677 5677 5679 5680 5681 5682 5684 5685 5687 5689 5689 5691 5692 5693 5696 5697 5699 5699 5699 5699 5697 5696 5694 5690 5686 5682 5677 5671 5665 5658 5650 5642 5633 5624 5613 5601 5589 5576 5562 5548 5537 5530 5524 5517
5675 5676 5677 5679 5680 5682 5684 5685 5688 5688 5690 5691 5692 5694 5696 5699 5698 5699 5700 5699 5699 5697 5695 5691 5688 5684 5679 5674 5668 5661 5653 5645 5637 5628 5618 5607 5595 5581 5568 5554 5543 5538 5532 5525
5672 5674 5675 5678 5680 5682 5684 5687 5687 5687 5689 5690 5692 5695 5697 5698 5698 5700 5700 5700 5700 5698 5696 5693 5691 5687 5682 5678 5671 5664 5658 5650 5641 5633 5624 5613 5601 5589 5576 5563 5552 5547 5542 5535
5669 5673 5676 5678 5681 5682 5684 5686 5686 5687 5689 5690 5692 5695 5697 5698 5700 5700 5702 5702 5701 5700 5698 5696 5694 5691 5687 5682 5676 5669 5662 5655 5646 5638 5630 5620 5610 5598 5585 5572 5561 5556 5551 5546
5669 5671 5675 5679 5680 5681 5684 5686 5686 5687 5688 5690 5693 5696 5697 5699 5700 5702 5703 5704 5703 5702 5701 5700 5698 5695 5691 5687 5682 5675 5668 5660 5652 5644 5636 5628 5619 5608 5597 5584 5572 5566 5562 5559
5667 5670 5675 5677 5680 5681 5684 5688 5686 5687 5689 5692 5694 5697 5699 5700 5702 5704 5705 5705 5705 5705 5705 5704 5702 5699 5696 5692 5687 5681 5674 5666 5659 5651 5643 5636 5628 5619 5609 5598 5585 5577 5572 5570
5665 5670 5675 5676 5679 5681 5684 5684 5686 5688 5690 5692 5695 5697 5700 5702 5704 5706 5707 5708 5708 5708 5708 5708 5706 5704 5701 5697 5693 5687 5681 5674 5666 5658 5651 5644 5637 5630 5621 5611 5600 5592 5585 5583
5664 5667 5672 5674 5677 5680 5683 5685 5686 5688 5691 5694 5696 5699 5702 5705 5706 5708 5710 5710 5711 5712 5712 5712 5710 5708 5706 5703 5698 5693 5688 5681 5674 5666 5660 5653 5647 5640 5633 5625 5617 5609 5601 5596
5661 5666 5670 5673 5676 5679 5682 5685 5686 5689 5693 5695 5697 5701 5704 5706 5708 5710 5712 5713 5714 5715 5716 5716 5715 5713 5711 5708 5704 5700 5695 5689 5683 5676 5669 5663 5657 5651 5644 5638 5633 5626 5620 5613
5660 5665 5670 5673 5676 5679 5682 5685 5688 5691 5694 5696 5699 5703 5705 5708 5710 5712 5714 5716 5718 5718 5719 5719 5719 5718 5716 5713 5710 5707 5703 5698 5692 5686 5679 5673 5667 5662 5656 5651 5646 5641 5636 5631
5661 5666 5670 5673 5675 5679 5682 5686 5689 5692 5694 5697 5701 5704 5708 5710 5712 5714 5717 5719 5721 5721 5722 5723 5723 5722 5721 5719 5716 5713 5709 5705 5701 5696 5690 5684 5678 5673 5668 5664 5659 5655 5652 5649
5660 5664 5668 5672 5675 5678 5683 5686 5689 5692 5695 5698 5703 5706 5709 5711 5714 5716 5719 5722 5723 5724 5725 5726 5726 5726 5725 5723 5721 5718 5715 5712 5709 5705 5700 5695 5690 5685 5680 5675 5672 5668 5665 5662
5659 5662 5667 5671 5675 5678 5682 5686 5689 5692 5696 5699 5703 5707 5710 5713 5715 5718 5721 5723 5725 5726 5728 5729 5729 5729 5729 5727 5726 5724 5721 5719 5716 5713 5709 5706 5702 5697 5692 5688 5683 5679 5675 5672
5658 5662 5666 5670 5674 5678 5681 5686 5689 5692 5695 5699 5704 5707 5711 5713 5716 5719 5722 5724 5726 5728 5730 5731 5731 5732 5732 5731 5730 5729 5727 5725 5722 5720 5717 5714 5712 5708 5704 5700 5695 5691 5688 5684
5657 5662 5666 5669 5674 5677 5681 5685 5688 5692 5695 5699 5703 5707 5711 5714 5717 5720 5723 5725 5727 5729 5731 5732 5733 5734 5734 5733 5733 5732 5731 5730 5728 5726 5724 5721 5719 5717 5714 5711 5707 5703 5700 5697
5659 5664 5667 5671 5674 5677 5681 5685 5688 5691 5694 5698 5702 5706 5709 5713 5716 5719 5722 5725 5727 5729 5731 5732 5734 5735 5735 5735 5735 5735 5734 5734 5733 5731 5729 5727 5725 5724 5722 5719 5717 5714 5711 5708
5659 5663 5667 5670 5673 5676 5680 5685 5689 5692 5694 5696 5700 5704 5707 5710 5714 5718 5721 5724 5727 5729 5731 5732 5734 5735 5736 5736 5737 5737 5736 5736 5735 5734 5733 5731 5730 5728 5727 5725 5723 5721 5719 5717
5656 5661 5665 5669 5672 5675 5679 5683 5687 5690 5694 5696 5698 5702 5706 5710 5714 5717 5720 5723 5725 5728 5731 5732 5734 5735 5736 5737 5737 5737 5737 5737 5737 5736 5735 5734 5733 5731 5730 5729 5728 5726 5724 5723
5653 5658 5662 5667 5671 5674 5677 5680 5684 5688 5691 5694 5697 5700 5704 5708 5711 5714 5717 5720 5724 5728 5730 5732 5733 5735 5736 5737 5737 5738 5738 5738 5738 5737 5736 5735 5735 5733 5732 5731 5730 5729 5727 5726
5650 5655 5659 5662 5667 5671 5674 5677 5681 5685 5689 5692 5695 5698 5702 5706 5709 5712 5716 5718 5721 5724 5727 5730 5731 5733 5735 5736 5736 5738 5738 5738 5738 5737 5737 5736 5735 5735 5733 5732 5730 5729 5728 5727
5647 5652 5657 5661 5664 5668 5671 5675 5678 5682 5686 5689 5692 5695 5700 5704 5707 5710 5713 5716 5719 5722 5724 5726 5728 5731 5733 5734 5735 5736 5736 5736 5736 5736 5736 5736 5735 5734 5733 5732 5730 5729 5727 5726
5644 5648 5652 5656 5660 5664 5667 5671 5675 5678 5682 5686 5689 5692 5695 5699 5702 5706 5709 5712 5714 5717 5719 5722 5725 5727 5729 5731 5732 5733 5734 5734 5734 5733 5733 5733 5733 5732 5730 5729 5728 5726 5725 5723
5640 5644 5648 5651 5655 5659 5663 5668 5671 5675 5678 5682 5685 5689 5692 5694 5698 5701 5704 5708 5711 5713 5716 5718 5721 5723 5725 5727 5728 5730 5730 5731 5731 5730 5729 5729 5729 5728 5727 5725 5724 5722 5721 5719
5637 5640 5643 5646 5649 5654 5658 5662 5666 5669 5673 5676 5680 5683 5687 5690 5693 5695 5699 5702 5705 5708 5711 5713 5716 5718 5720 5722 5723 5724 5725 5726 5726 5725 5725 5725 5724 5723 5722 5720 5718 5717 5715 5714
5632 5636 5639 5641 5645 5649 5652 5656 5660 5664 5667 5671 5675 5678 5681 5685 5688 5691 5694 5697 5699 5702 5705 5708 5710 5712 5714 5715 5717 5718 5719 5720 5720 5720 5719 5719 5718 5717 5716 5714 5713 5711 5709 5707
5627 5631 5635 5638 5641 5643 5646 5650 5654 5658 5661 5665 5668 5672 5676 5680 5683 5686 5689 5692 5694 5697 5699 5701 5704 5706 5707 5709 5710 5711 5712 5713 5713 5713 5712 5712 5711 5710 5709 5708 5706 5704 5702 5700